Orbital Elements at Epoch 2459200.5 (2020-Dec-17.0) TDB
Reference: JPL 32 (heliocentric ecliptic J2000)
Element | Value | Uncertainty (1-sigma) | Units |
e | .2434731872117708 | 1.7195e-08 | |
a | 2.398835239654426 | 5.0124e-09 | au |
q | 1.814783178259851 | 4.1753e-08 | au |
i | 10.47009927843935 | 4.1794e-07 | deg |
node | 159.9110879436398 | 2.5343e-06 | deg |
peri | 178.6492164057531 | 3.0793e-06 | deg |
M | 68.95384385332787 | 2.328e-06 | deg |
tp | 2458940.570819609011 (2020-Apr-01.07081961) | 8.3209e-06 | TDB |
period | 1357.060023220737 3.72 | 4.2534e-06 1.165e-08 | d yr |
n | .2652793493581846 | 8.3146e-10 | deg/d |
Q | 2.982887301049001 | 6.2328e-09 | au |
|
| | Orbit Determination Parameters
Additional Information
|